Regional Weather Roundup
Issued by NWS Grand Forks, ND

Home | Current Version | Previous Version | Text Only | Print | Product List | Glossary Off
Versions: 1 2 3 4 5 6 7 8 9 10 11 12 13 14 15 16 17 18 19 20 21 22 23 24 25 26 27 28 29 30 31 32 33 34 35 36 37 38 39 40 41 42 43 44 45 46 47 48 49 50

099
ASUS43 KFGF 190210
RWRFGF
PRAIRIE TO PINES  WEATHER ROUNDUP
NATIONAL WEATHER SERVICE EASTERN NORTH DAKOTA/GRAND FORKS ND
800 PM CST WED JAN 18 2017

 **SATELLITE DATA USED TO AUGMENT SKY COVER AT AUTOMATED STATIONS**
 *****  WEATHER ACROSS EASTERN NORTH DAKOTA  *****

CITY           SKY/WX    TMP DP  RH WIND       PRES   REMARKS
GRAND FORKS    FAIR      28  21  75 S12       29.67S WCI  18
GRAND FRKS AFB FAIR      24  21  86 S9        29.65F WCI  15
DEVILS LAKE    FAIR      29  24  82 S8        29.61S WCI  21
FARGO          FAIR      33  27  78 SE9       29.71S
WAHPETON ARPT  FAIR      30  27  86 SE10      29.74S WCI  21
$$

 ***** WEATHER ACROSS CENTRAL AND WESTERN NORTH DAKOTA  *****

CITY           SKY/WX    TMP DP  RH WIND       PRES   REMARKS
BISMARCK       FAIR      20  13  74 SE5       29.65S WCI  13
MINOT          FAIR      37  28  70 SW10      29.55S
JAMESTOWN      FAIR      26  23  88 S9        29.64F WCI  17
MINOT AFB      NOT AVBL
GARRISON         N/A     25  21  85 S3        29.58F
WILLISTON      FAIR      29  24  82 CALM      29.56S
DICKINSON      FAIR      35  24  64 S6        29.57F
HETTINGER      FAIR      25  19  78 NW6       29.62F WCI  18
$$

 *****  OTHER AIRPORT OBSERVATIONS IN OUR AREA  *****

CITY           SKY/WX    TMP DP  RH WIND       PRES   REMARKS
WALHALLA       NOT AVBL
GRAFTON AIRPOR FAIR      27  25  93 S15       29.66F WCI  15
VALLEY CITY AR FAIR      25  25 100 S10       29.69S WCI  15
CANDO          NOT AVBL
CAVALIER APRT    N/A     28  25  86 S14       29.61F WCI  17
GWINNER        FAIR      32  27  80 S12       29.71R WCI  23
ROLLA            N/A    N/A N/A N/A MISG        N/A
 ***** THE ABOVE OBSERVATIONS ARE NON NWS ARE NOT QUALITY
       CONTROLLED AND MAY MIS-REPORT RAIN FOR SNOW...
$$

  *****  WEATHER ACROSS NORTHERN MINNESOTA  *****

CITY           SKY/WX    TMP DP  RH WIND       PRES   REMARKS
FLAG ISLAND    FAIR      25  19  80 S9        29.67S WCI  15
WARROAD        FAIR      30  25  80 S3        29.68F
ROSEAU         FAIR      28  23  80 S8        29.67F WCI  20
HALLOCK        FAIR      27  23  86 S18       29.64F WCI  13
THF RVR FALLS  FAIR      28  23  81 S12       29.69F WCI  18
BAUDETTE       FAIR      28  21  75 SE6       29.69S WCI  22
WASKISH        FAIR      32  27  80 S3        29.71F
CROOKSTON      FAIR      30  25  80 S15       29.70S WCI  19
GREENBUSH NDAW   N/A     28  23  80 S12         N/A  WCI  18
$$
  *****  WEATHER ACROSS CENTRAL AND WEST MINNESOTA  *****

CITY           SKY/WX    TMP DP  RH WIND       PRES   REMARKS
FOSSTON        FAIR      25  19  80 S12       29.71F WCI  14
BEMIDJI        FAIR      33  24  71 S6        29.73S
PARK RAPIDS    FAIR      26  19  74 S6        29.74S WCI  19
ELBOW LAKE     FAIR      31  28  86 E9        29.75S WCI  23
WADENA         FAIR      28  23  80 SE3       29.75S
DETROIT LAKES  FAIR      32  27  80 S8        29.74S WCI  25
MOORHEAD       FAIR      27  23  86 SE9       29.73S WCI  17
FERGUS FALLS   FAIR      30  25  80 SE9       29.79S WCI  22
MORRIS MN      FAIR      30  28  93 SE9       29.74F WCI  22
STAPLES        FAIR      28  25  86 S5        29.76F WCI  23
$$
  *****  WEATHER ELSEWHERE ACROSS MINNESOTA  *****

CITY           SKY/WX    TMP DP  RH WIND       PRES   REMARKS
DULUTH         FAIR      35  26  69 SW9       29.79S
INTRNTL FALLS  FAIR      25  20  81 CALM      29.72F
ELY            FAIR      27  23  86 CALM      29.76S
CLOQUET        FAIR      34  25  69 S6        29.79F
WHEATON        FAIR      36  32  87 SE10      29.76S
BRAINERD       FAIR      30  25  81 S9        29.78S WCI  22
HIBBING        FAIR      28  23  81 CALM      29.77S
ALEXANDRIA     FAIR      30  26  85 S6        29.77S WCI  24
SAINT CLOUD    FAIR      30  29  96 SE6       29.81F WCI  24
MINNEAPOLIS    FAIR      33  29  85 SE6       29.85F
$$

  *****  WEATHER ACROSS SOUTH DAKOTA  *****

CITY           SKY/WX    TMP DP  RH WIND       PRES   REMARKS
SIOUX FALLS    FAIR      42  38  85 S15       29.77F
BROOKINGS      FAIR      34  32  92 S10       29.74F
WATERTOWN      FAIR      28  26  92 S7        29.73F WCI  21
HURON          FAIR      32  30  92 SE7       29.71S
SISSETON         N/A     32  27  81 S6        29.72S
ABERDEEN       FAIR      19  16  88 S6        29.71F WCI  11
MITCHELL       FAIR      37  34  89 S10       29.73F
PIERRE         FAIR      25  20  81 E6        29.66F WCI  18
MOBRIDGE       FAIR      24  17  74 SE9       29.64F WCI  14
RAPID CITY     FAIR      26  21  81 N5        29.60F WCI  20
$$

  *****  SOME WEATHER IN NEARBY STATES *****

CITY           SKY/WX    TMP DP  RH WIND       PRES   REMARKS
GLASGOW MT     FAIR      32  26  78 SE9       29.50F WCI  24
GREAT FALLS MT FAIR      41  26  55 S16       29.53S
CHEYENNE WY    FAIR      33  18  53 W9        29.74F
SCOTTSBLUFF NE FAIR      39  23  52 CALM      29.70F
OMAHA NE       FAIR      40  34  79 S9        29.90S
DES MOINES IA  FAIR      35  33  92 S13       29.97F
DAVENPORT IA   FAIR      31  30  96 SE6       30.04F FOG
CHICAGO IL     CLOUDY    36  32  85 SW10      30.06F
EAU CLAIRE WI  FAIR      31  29  92 S5        29.89S FOG
LA CROSSE WI   CLOUDY    36  31  82 S9        29.96F
$$

  *****  SOME NATIONAL WEATHER *****

CITY           SKY/WX    TMP DP  RH WIND       PRES   REMARKS
LA GUARDIA NY  CLOUDY    42  37  82 N3        30.03S
RALEIGH NC     FAIR      53  34  48 NE5       30.05R
ATLANTA GA     MOCLDY    61  51  70 W6        30.09F
NEW ORLEANS LA CLOUDY    71  69  93 S8        30.05S
OKLAHOMA CITY  MOCLDY    48  44  86 S6        29.95F
ALBUQUERQUE NM MOCLDY    44  32  62 NW6       30.00S
SALT LAKE CITY MOCLDY    24  21  88 N5        29.96F FOG     WCI  18
LOS ANGELES CA CLOUDY    57  47  69 W15       30.14R
BOISE ID       FRZ RAIN  32  30  92 S16       29.75F WCI  21
SEATTLE WA     CLOUDY    47  42  83 E10       29.23F
$$

*** WEATHER ACROSS MANITOBA...SASKATCHEWAN AND ONTARIO ***
                ***ONTARIO***

CITY           SKY/WX    TMP DP  RH WIND       PRES   REMARKS
GERALDTON      CLEAR     19  19 100 CALM      29.79R
THUNDER BAY    CLEAR     25  23  93 VRB2      29.80S
SIOUX LOOKOUT  MOCLDY    28  23  80 S5        29.72F WCI  23
TORONTO        CLOUDY    37  34  87 SW13G21   29.97F
BIG TROUT LK   CLOUDY    32  30  93 S7        29.71S
PICKLE LAKE    MOCLDY    23  21  93 S6        29.72F WCI  16
DRYDEN         MOCLDY    28  25  86 S8        29.69F WCI  20
KENORA         PTCLDY    30  25  80 S14       29.65F WCI  20
$$
                *** MANITOBA***

CITY           SKY/WX    TMP DP  RH WIND       PRES   REMARKS
BRANDON        PTCLDY    28  23  80 SW10      29.50F WCI  19
DAUPHIN        CLEAR     37  28  70 W17G23    29.39S
ISLAND LAKE    MOCLDY    28  27  93 E8G17     29.55F WCI  20
PILOT MOUND      N/A     27  23  86 S14         N/A  WCI  15
THE PAS        PTCLDY    30  27  86 SE9       29.30F WCI  22
THOMPSON       LGT RAIN  32  30  93 E7        29.46F
WINNIPEG       PTCLDY    28  23  80 S22       29.57F WCI  15
LYNN LAKE      CLOUDY    30  30 100 SE13      29.33F WCI  20
CHURCHILL      LGT SNOW   7   5  92 SE12      29.69S FOG     WCI  -9
GILLAM         FLURRIES  25  23  93 E7        29.60F WCI  17
$$
                ***SASKATCHEWAN***

CITY           SKY/WX    TMP DP  RH WIND       PRES   REMARKS
ESTEVAN        PTCLDY    30  25  80 SW16      29.49F WCI  19
KINDERSLEY     PTCLDY    34  30  86 S10       29.31R
LLOYDMINSTER   MOCLDY    36  28  75 SW13      29.22R
PRINCE ALBERT  MOCLDY    34  28  80 SW5       29.22F
REGINA         MOCLDY    36  30  80 SE9       29.41S
YORKTON        CLEAR     36  30  80 SW10      29.36F
N. BATTLEFORD  CLEAR     34  28  80 CALM      29.23F
LA RONGE       CLEAR     23  19  86 NE5       29.18F WCI  17
SASKATOON      PTCLDY    34  30  86 S8        29.26F
SWIFT CURRENT  CLEAR     37  32  81 SW15      29.38R
$$
NOTE: THESE ARE AUTOMATED STATIONS WITH LIMITED QUALITY CONTROL
      "FAIR" INDICATES FEW OR NO CLOUDS BELOW 12,000 FEET WITH NO
      SIGNIFICANT WEATHER AND/OR OBSTRUCTIONS TO VISIBILITY.
      SKY/WX - SKY CONDITION AND SIGNIFICANT WEATHER.
      TMP - AIR TEMPERATURE.    DP   - DEWPOINT TEMPERATURE.
      RH  - RELATIVE HUMIDITY.  PRES - PRESSURE.
      HX  - HEAT INDEX.         WCI  - WIND CHILL INDEX.
$




USA.gov is the U.S. government's official web portal to all federal, state and local government web resources and services.